Weather History for Miramar MCAS, CA

Change the Weather History Date:

Monday, January 28, 2013

  Actual Average Record
Temperature  
Mean Temperature 50 °F -  
Max Temperature 57 °F 64 °F 80 °F (2012)
Min Temperature 42 °F 44 °F 37 °F (1999)
Degree Days  
Heating Degree Days 16    
Moisture  
Dew Point 37 °F    
Average Humidity 62    
Maximum Humidity 85    
Minimum Humidity 36    
Precipitation  
Precipitation 0.00 in - - ()
Sea Level Pressure  
Sea Level Pressure 30.10 in    
Wind  
Wind Speed 5 mph (West)    
Max Wind Speed 15 mph    
Max Gust Speed 25 mph    
Visibility 10 miles    
Events      
Averages and records for this station are not official NWS values.
T = Trace of Precipitation, MM = Missing Value Source: NWS Daily Summary

Daily Weather History Graph

Daily Weather History Graph

Search for Another Location

Airport:

Trip Planner

Search our weather history database for the weather conditions in past years. The results will help you decide how hot, cold, wet, or windy it might be!

Date:

Astronomy

Jan. 28, 2013 Rise Set
Actual Time 6:45 AM PST 5:17 PM PST
Civil Twilight 6:19 AM PST 5:43 PM PST
Nautical Twilight 5:50 AM PST 6:13 PM PST
Astronomical Twilight 5:20 AM PST 6:42 PM PST
Moon 7:07 PM PST (1/28) 7:21 AM PST (1/28)
Length of Visible Light 11h 23m
Length of Day
10h 31m
Full, 97% of the Moon is Illuminated
Jan 28
Full
Feb 3
Last Quarter
Feb 9
New
Feb 17
First Quarter
Feb 25
Full

Hourly Weather History & Observations

Time (PST) Temp. Windchill Dew Point Humidity Pressure Visibility Wind Dir Wind Speed Gust Speed Precip Events Conditions
12:55 AM 48.9 °F - 43.0 °F 80% 30.03 in 10.0 mi SW 4.6 mph - N/A   Mostly Cloudy
1:55 AM 46.9 °F - 41.0 °F 80% 30.03 in 10.0 mi SSW 5.8 mph - N/A   Scattered Clouds
2:55 AM 50.0 °F - 42.1 °F 74% 30.04 in 10.0 mi West 5.8 mph - N/A   Mostly Cloudy
3:55 AM 48.0 °F - 37.0 °F 66% 30.04 in 10.0 mi West 4.6 mph - N/A   Scattered Clouds
4:55 AM 48.0 °F - 39.9 °F 74% 30.05 in 10.0 mi Calm Calm - N/A   Scattered Clouds
5:55 AM 45.0 °F - 39.0 °F 80% 30.06 in 10.0 mi Calm Calm - N/A   Scattered Clouds
6:55 AM 42.1 °F 40.2 °F 37.9 °F 85% 30.07 in 10.0 mi SE 3.5 mph - N/A   Scattered Clouds
7:55 AM 50.0 °F - 42.1 °F 74% 30.09 in 10.0 mi Calm Calm - N/A   Partly Cloudy
8:55 AM 54.0 °F - 37.0 °F 53% 30.09 in 10.0 mi NW 3.5 mph - N/A   Partly Cloudy
9:55 AM 55.0 °F - 37.0 °F 51% 30.10 in 10.0 mi WNW 8.1 mph - N/A   Scattered Clouds
10:55 AM 57.0 °F - 36.0 °F 45% 30.12 in 10.0 mi WNW 12.7 mph 16.1 mph N/A   Scattered Clouds
11:55 AM 55.9 °F - 28.9 °F 36% 30.10 in 10.0 mi West 6.9 mph 19.6 mph N/A   Scattered Clouds
12:55 PM 57.0 °F - 30.9 °F 37% 30.08 in 10.0 mi WSW 6.9 mph 16.1 mph N/A   Scattered Clouds
1:55 PM 57.0 °F - 32.0 °F 39% 30.08 in 10.0 mi NW 13.8 mph 25.3 mph N/A   Scattered Clouds
2:55 PM 57.0 °F - 33.1 °F 40% 30.08 in 10.0 mi WNW 15.0 mph 21.9 mph N/A   Scattered Clouds
3:55 PM 55.9 °F - 33.1 °F 42% 30.09 in 10.0 mi West 10.4 mph - N/A   Scattered Clouds
4:55 PM 54.0 °F - 35.1 °F 49% 30.10 in 10.0 mi WNW 9.2 mph - N/A   Scattered Clouds
5:55 PM 52.0 °F - 36.0 °F 54% 30.12 in 10.0 mi WNW 6.9 mph - N/A   Scattered Clouds
6:55 PM 50.0 °F - 39.0 °F 66% 30.14 in 10.0 mi WNW 6.9 mph - N/A   Clear
7:55 PM 46.0 °F 44.8 °F 37.9 °F 73% 30.16 in 10.0 mi East 3.5 mph - N/A   Partly Cloudy
8:55 PM 46.0 °F - 37.9 °F 73% 30.17 in 10.0 mi Calm Calm - N/A   Clear
9:55 PM 44.1 °F 41.5 °F 37.9 °F 79% 30.17 in 10.0 mi ESE 4.6 mph - N/A   Partly Cloudy
10:55 PM 46.9 °F - 37.9 °F 71% 30.18 in 10.0 mi ESE 5.8 mph - N/A   Partly Cloudy
11:55 PM 44.1 °F 40.8 °F 37.0 °F 76% 30.19 in 10.0 mi East 5.8 mph - N/A   Scattered Clouds